Hourly Data Report for January 16, 2022

RANKIN INLET A
NUNAVUT
Current Station Operator: NAVCAN

62°48'38.000" N
92°06'53.000" W
32.30 m
2303405
71083
YRT

Download Data

Hourly Data (January 2022)
Hourly Data Report for January 16, 2022
TIME
LST
Temp Definition
°C
Dew Point Definition
°C
Rel Hum Definition
%
Precip. Amount Definition
mm

Wind Dir Definition
10's deg

Wind Spd Definition
km/h
Visibility Definition
km
Stn Press Definition
kPa
Hmdx Definition


Wind Chill Definition


Weather Definition


00:00 -31.3 -35.3 69   32 53 0.2 99.22   -51 Snow,Blowing Snow
01:00 -31.1 -35.1 69   32 53 0.2 99.24   -51 Snow,Blowing Snow
02:00 -30.3 -34.3 69   32 55 0.2 99.21   -50 Snow,Blowing Snow
03:00 -29.2 -33.1 70   32 59 0.2 99.10   -49 Snow,Blowing Snow
04:00 -28.4 -32.2 70   33 62 0.2 99.02   -48 Snow,Blowing Snow
05:00 -27.6 -31.4 71   33 61 0.2 99.00   -47 Snow,Blowing Snow
06:00 -26.9 -30.6 71   33 59 0.2 98.94   -46 Snow,Blowing Snow
07:00 -25.5 -29.2 72   33 54 0.4 98.92   -43 Snow,Blowing Snow
08:00 -25.2 -28.8 73   33 43 0.6 98.90   -42 Snow,Blowing Snow
09:00 -23.5 -26.9 74   35 49 0.6 98.89   -40 Snow,Blowing Snow
10:00 -23.0 -26.4 74   34 42 1.2 98.89   -38 Snow,Blowing Snow
11:00 -22.8 -26.2 74   35 48 1.2 98.89   -39 Snow,Blowing Snow
12:00 -21.5 -24.7 75   36 51 0.4 98.90   -38 Snow,Blowing Snow
13:00 -21.2 -24.5 75   35 52 0.4 98.94   -37 Snow,Blowing Snow
14:00 -21.0 -24.2 76   1 61 0.2 99.00   -38 Snow,Blowing Snow
15:00 -21.2 -24.4 76   1 59 0.4 99.10   -38 Snow,Blowing Snow
16:00 -21.7 -25.0 75   1 57 0.4 99.21   -39 Snow,Blowing Snow
17:00 -21.7 -25.0 75   1 55 0.6 99.29   -38 Snow,Blowing Snow
18:00 -21.8 -25.2 75   1 49 0.8 99.40   -38 Snow,Blowing Snow
19:00 -21.9 -25.2 75   36 52 1.2 99.49   -38 Snow,Blowing Snow
20:00 -22.2 -25.6 74   1 49 1.2 99.52   -38 Snow,Blowing Snow
21:00 -22.4 -25.9 74   35 46 1.0 99.66   -38 Snow,Blowing Snow
22:00 -23.9 -27.5 73   35 41 1.2 99.67   -39 Snow,Blowing Snow
23:00 -25.2 -28.7 73   35 49 1.6 99.71   -42 Ice Crystals,Blowing Snow

Notes on Data Quality.

Legend

  • E = Estimated
  • M = Missing
  • NA = Not Available*
  • [empty] = Indicates an unobserved value
Date modified: